Regional Weather Roundup
Issued by NWS

Home | Current Version | Previous Version | Text Only | Print | Product List | Glossary Off
Versions: 1 2 3 4 5 6 7 8 9 10 11 12 13 14 15 16 17 18 19 20 21 22 23 24 25 26 27 28 29 30 31 32 33 34 35 36 37 38 39 40 41 42 43 44 45 46 47 48 49 50

000
ASUS43 KBIS 211610
RWRND

NORTH DAKOTA REGIONAL WEATHER ROUNDUP
NATIONAL WEATHER SERVICE BISMARCK ND
1000 AM CST TUE NOV 21 2017

NOTE: "FAIR" INDICATES FEW OR NO CLOUDS BELOW 12,000 FEET WITH NO
SIGNIFICANT WEATHER AND/OR OBSTRUCTIONS TO VISIBILITY.


NDZ001>003-009>011-017-211700-
NORTHWEST NORTH DAKOTA

CITY           SKY/WX    TMP DP  RH WIND       PRES   REMARKS
WILLISTON      CLOUDY     6  -1  73 NW9       30.40R WCI  -8
MINOT          CLOUDY     9   2  73 W16       30.34R WCI  -8
MINOT AFB      CLOUDY     9   2  73 NW20      30.33R FOG     WCI -10
$$

NDZ018>021-031>035-040>046-211700-
SOUTHWEST NORTH DAKOTA

CITY           SKY/WX    TMP DP  RH WIND       PRES   REMARKS
BISMARCK       CLOUDY    18   6  59 NW14G29   30.37R WCI   4
DICKINSON      CLOUDY     7   0  73 W17       30.32R WCI -12
GARRISON         N/A      9   1  70 NW21      30.33R WCI -11
HETTINGER ARPT CLOUDY     9  -1  64 NW18G26   30.34R WCI -10
$$

NDZ004>008-012>016-024-026-027-054-211700-
NORTHEAST NORTH DAKOTA

CITY           SKY/WX    TMP DP  RH WIND       PRES   REMARKS
GRAND FORKS    MOSUNNY   16   9  74 NW16G25   30.25R WCI   1
GRND FRKS AFB  MOSUNNY   15   6  69 N17G25    30.25R WCI  -1
DEVILS LAKE    SUNNY     12   6  77 NW16      30.26R WCI  -5
$$

NDZ022-023-025-028>030-036>039-047>053-211700-
SOUTHEAST NORTH DAKOTA

CITY           SKY/WX    TMP DP  RH WIND       PRES   REMARKS
FARGO          PTSUNNY   17   7  64 N25G32    30.24R WCI  -1
JAMESTOWN      MOSUNNY   14   6  70 NW22G29   30.27R WCI  -4
$$




USA.gov is the U.S. government's official web portal to all federal, state and local government web resources and services.